This is the latest recevied weather packets stored in our database for station/object N4ASP-13. If no packets are shown the sender has not sent any weather packets the latest 10 day(s).
| Time | Temp. | Humidity | Pressure | Rain* | Wind** | Luminosity | Snow |
|---|---|---|---|---|---|---|---|
| 1778243461 | 11.11° C | 63% | 1017.6 hPa | 0 mm | - | 353 W/m² | - |
| 1778243401 | 11.11° C | 63% | 1017.6 hPa | 0 mm | - | 352 W/m² | - |
| 1778243345 | 11.11° C | 64% | 1017.6 hPa | 0 mm | - | 352 W/m² | - |
| 1778243282 | 11.11° C | 66% | 1017.7 hPa | 0 mm | - | 350 W/m² | - |
| 1778243222 | 11.11° C | 66% | 1017.5 hPa | 0 mm | - | 346 W/m² | - |
| 1778243154 | 11.11° C | 66% | 1017.5 hPa | 0 mm | - | 343 W/m² | - |
| 1778243091 | 11.11° C | 66% | 1017.6 hPa | 0 mm | - | 338 W/m² | - |
| 1778243032 | 11.11° C | 65% | 1017.5 hPa | 0 mm | - | 327 W/m² | - |
| 1778242971 | 11.11° C | 64% | 1017.6 hPa | 0 mm | - | 322 W/m² | - |
| 1778242912 | 11.11° C | 64% | 1017.6 hPa | 0 mm | - | 316 W/m² | - |
| 1778242849 | 11.11° C | 63% | 1017.5 hPa | 0 mm | - | 311 W/m² | - |
| 1778242790 | 11.11° C | 65% | 1017.6 hPa | 0 mm | - | 306 W/m² | - |
| 1778242728 | 10.56° C | 63% | 1017.5 hPa | 0 mm | - | 301 W/m² | - |
| 1778242668 | 10.56° C | 63% | 1017.5 hPa | 0 mm | - | 290 W/m² | - |
| 1778242606 | 10.56° C | 63% | 1017.4 hPa | 0 mm | - | 287 W/m² | - |
| 1778242542 | 10.56° C | 63% | 1017.4 hPa | 0 mm | - | 281 W/m² | - |
| 1778242483 | 10.56° C | 62% | 1017.4 hPa | 0 mm | - | 276 W/m² | - |
| 1778242421 | 10.56° C | 63% | 1017.4 hPa | 0 mm | - | 272 W/m² | - |
| 1778242362 | 10.56° C | 63% | 1017.4 hPa | 0 mm | - | 264 W/m² | - |
| 1778242299 | 10.56° C | 64% | 1017.5 hPa | 0 mm | - | 260 W/m² | - |
| 1778242230 | 10.56° C | 64% | 1017.4 hPa | 0 mm | - | 257 W/m² | - |
| 1778242170 | 10.56° C | 64% | 1017.4 hPa | 0 mm | - | 255 W/m² | - |
| 1778242111 | 10.56° C | 63% | 1017.4 hPa | 0 mm | - | 250 W/m² | - |
| 1778242050 | 10.56° C | 63% | 1017.4 hPa | 0 mm | - | 248 W/m² | - |
| 1778241990 | 10.56° C | 66% | 1017.4 hPa | 0 mm | - | 248 W/m² | - |
* Rain latest hour (hover to see other rain measurements)
** Current wind speed in m/s (hover to see current wind gust speed)